Home > Weather > Wardha > Past weeks

Flag for India Past Weather in Wardha, Maharashtra, India — Yesterday and Last 2 Weeks

Now
86 °F

Scattered clouds.


Feels Like: 93 °F
Forecast: 77 / 90 °F
Wind: 9 mph from Northwest

Location: Nagpur Sonegaon

Current Time: Aug 25, 2016 at 10:24:45 AM

Latest Report: Aug 25, 2016 at 9:30 AM


Visibility: 3 mi

Pressure: 29.77 "Hg

Humidity: 66%

Dew Point: 73 °F

Location of WardhaLocation

Past Weather in Wardha — Graph

°F

Wardha Temperature Yesterday

Maximum temperature yesterday: 91 °F (at 2:00 PM)
Minimum temperature yesterday: 77 °F (at 6:30 AM)
Average temperature yesterday: 86 °F

High & Low Weather Summary for the Past Weeks

 TemperatureHumidityPressure
High91 °F (Aug 18, 3:00 PM)94% (Aug 12, 1:30 AM)29.77 "Hg (Aug 12, 1:30 AM)
Low75 °F (Aug 17, 4:30 AM)33% (Aug 17, 12:30 PM)29.53 "Hg (Aug 16, 4:30 PM)
Average83 °F74%29.67 "Hg
* Reported Aug 10 8:30 AM — Aug 25 9:00 AM, Wardha, Weather by CustomWeather, © 2016

Note: Actual official high and low records may vary slightly from our data, if they occured in-between our weather recording intervals... More about our weather records

Advertising

Wardha Weather History for the Previous 24 Hours

Scroll right to see more
 ConditionsComfort  
Time TempWeatherWind HumidityBarometerVisibility
9:00 AM
Thu, Aug 25
86 °FScattered clouds.10 mph66%29.77 "Hg3 mi
8:30 AM86 °FHaze.7 mph70%29.77 "Hg3 mi
6:30 AM82 °FPartly sunny.3 mph79%29.74 "Hg2 mi
5:30 AM82 °FPassing clouds.No wind79%29.74 "Hg2 mi
5:00 AM81 °FHaze.No wind84%29.71 "Hg2 mi
4:30 AM81 °FHaze.No wind79%29.71 "Hg2 mi
4:00 AM81 °FPassing clouds.No wind84%29.71 "Hg2 mi
3:30 AM81 °FPassing clouds.2 mph84%29.71 "Hg2 mi
3:00 AM81 °FPassing clouds.3 mph84%29.71 "Hg2 mi
2:00 AM82 °FPassing clouds.3 mph79%29.71 "Hg2 mi
10:30 PM
Wed, Aug 24
84 °FPassing clouds.3 mph74%29.74 "Hg2 mi
10:00 PM84 °FPassing clouds.2 mph74%29.71 "Hg2 mi
9:30 PM86 °FHaze.No wind70%29.71 "Hg2 mi
9:00 PM86 °FHaze.No wind70%29.71 "Hg2 mi
8:00 PM86 °FPassing clouds.No wind70%29.68 "Hg2 mi
7:30 PM86 °FPassing clouds.2 mph70%29.65 "Hg2 mi
7:00 PM88 °FHaze.5 mph62%29.65 "Hg2 mi
6:30 PM88 °FHaze.5 mph62%29.65 "Hg3 mi
6:00 PM90 °FHaze.7 mph59%29.62 "Hg3 mi
5:30 PM91 °FScattered clouds.6 mph56%29.62 "Hg3 mi
5:00 PM91 °FScattered clouds.9 mph56%29.62 "Hg3 mi
4:30 PM91 °FScattered clouds.9 mph59%29.62 "Hg3 mi
4:00 PM91 °FScattered clouds.9 mph56%29.62 "Hg3 mi
3:30 PM91 °FScattered clouds.8 mph56%29.62 "Hg3 mi
3:00 PM91 °FScattered clouds.9 mph56%29.62 "Hg3 mi
2:30 PM91 °FScattered clouds.12 mph63%29.65 "Hg3 mi
2:00 PM91 °FScattered clouds.8 mph59%29.65 "Hg3 mi
1:30 PM90 °FScattered clouds.9 mph63%29.68 "Hg3 mi
1:00 PM90 °FScattered clouds.6 mph63%29.71 "Hg3 mi
12:30 PM88 °FHaze.6 mph66%29.71 "Hg3 mi
11:30 AM88 °FHaze.7 mph70%29.71 "Hg3 mi
11:00 AM86 °FScattered clouds.7 mph75%29.74 "Hg3 mi
10:30 AM82 °FScattered clouds.6 mph84%29.74 "Hg3 mi
Weather by CustomWeather, © 2016

See weather overviewHow to use our weather pages